Time,TemperatureF,DewpointF,PressureIn,WindDirection,WindDirectionDegrees,WindSpeedMPH,WindSpeedGustMPH,Humidity,HourlyPrecipIn,Conditions,Clouds,dailyrainin,SoftwareType,DateUTC
2013-03-01 00:02:00,43.0,31.0,29.73,West,263,1.0,9.0,62,0.00,,,0.00,weatherlink.com 1.10,2013-03-01 05:02:00,
2013-03-01 00:17:00,43.0,31.0,29.73,West,276,0.0,7.0,62,0.00,,,0.00,weatherlink.com 1.10,2013-03-01 05:17:00,
2013-03-01 00:32:00,42.9,31.0,29.73,WSW,249,0.0,3.0,63,0.00,,,0.00,weatherlink.com 1.10,2013-03-01 05:32:00,
2013-03-01 00:47:00,42.8,31.0,29.74,NW,309,1.0,4.0,63,0.00,,,0.00,weatherlink.com 1.10,2013-03-01 05:47:00,
2013-03-01 01:02:00,42.7,31.0,29.74,NW,322,2.0,8.0,63,0.00,,,0.00,weatherlink.com 1.10,2013-03-01 06:02:00,
2013-03-01 01:17:00,42.6,31.0,29.75,NNW,340,0.0,5.0,64,0.00,,,0.00,weatherlink.com 1.10,2013-03-01 06:17:00,
2013-03-01 01:32:00,42.5,31.0,29.75,WNW,294,2.0,5.0,64,0.00,,,0.00,weatherlink.com 1.10,2013-03-01 06:32:00,
2013-03-01 01:47:00,42.5,31.0,29.75,West,276,1.0,5.0,64,0.00,,,0.00,weatherlink.com 1.10,2013-03-01 06:47:00,
2013-03-01 02:02:00,42.5,31.0,29.75,SW,236,1.0,5.0,64,0.00,,,0.00,weatherlink.com 1.10,2013-03-01 07:02:00,
2013-03-01 02:17:00,42.5,31.0,29.75,West,267,2.0,8.0,64,0.00,,,0.00,weatherlink.com 1.10,2013-03-01 07:17:00,
2013-03-01 02:32:00,42.4,31.0,29.75,North,1,1.0,4.0,64,0.00,,,0.00,weatherlink.com 1.10,2013-03-01 07:32:00,
2013-03-01 02:47:00,42.4,31.0,29.75,WNW,286,2.0,6.0,64,0.00,,,0.00,weatherlink.com 1.10,2013-03-01 07:47:00,
2013-03-01 03:02:00,42.3,31.0,29.75,North,1,3.0,4.0,64,0.00,,,0.00,weatherlink.com 1.10,2013-03-01 08:02:00,
2013-03-01 03:17:00,42.3,31.0,29.76,WSW,250,4.0,6.0,64,0.00,,,0.00,weatherlink.com 1.10,2013-03-01 08:17:00,
2013-03-01 03:32:00,42.2,31.0,29.76,NW,319,0.0,4.0,64,0.00,,,0.00,weatherlink.com 1.10,2013-03-01 08:32:00,
2013-03-01 03:47:00,42.2,30.0,29.76,North,2,0.0,8.0,63,0.00,,,0.00,weatherlink.com 1.10,2013-03-01 08:47:00,
2013-03-01 04:02:00,42.1,31.0,29.76,NNE,23,3.0,8.0,64,0.00,,,0.00,weatherlink.com 1.10,2013-03-01 09:02:00,
2013-03-01 04:17:00,41.9,30.0,29.76,West,276,2.0,5.0,64,0.00,,,0.00,weatherlink.com 1.10,2013-03-01 09:17:00,
2013-03-01 04:32:00,41.8,30.0,29.75,West,265,1.0,5.0,64,0.00,,,0.00,weatherlink.com 1.10,2013-03-01 09:32:00,
2013-03-01 04:47:00,41.8,31.0,29.75,NW,319,0.0,5.0,65,0.00,,,0.00,weatherlink.com 1.10,2013-03-01 09:47:00,
2013-03-01 05:02:00,41.7,30.0,29.76,WSW,257,2.0,6.0,64,0.00,,,0.00,weatherlink.com 1.10,2013-03-01 10:02:00,
2013-03-01 05:17:00,41.6,31.0,29.76,West,276,0.0,8.0,65,0.00,,,0.00,weatherlink.com 1.10,2013-03-01 10:17:00,
2013-03-01 05:32:00,41.6,30.0,29.76,WSW,248,2.0,4.0,64,0.00,,,0.00,weatherlink.com 1.10,2013-03-01 10:32:00,
2013-03-01 05:47:00,41.6,30.0,29.77,West,276,3.0,4.0,64,0.00,,,0.00,weatherlink.com 1.10,2013-03-01 10:47:00,
2013-03-01 06:02:00,41.5,30.0,29.77,North,10,2.0,4.0,65,0.00,,,0.00,weatherlink.com 1.10,2013-03-01 11:02:00,
2013-03-01 06:17:00,41.5,30.0,29.77,North,352,2.0,5.0,65,0.00,,,0.00,weatherlink.com 1.10,2013-03-01 11:17:00,
2013-03-01 06:32:00,41.4,30.0,29.77,NNW,332,0.0,6.0,65,0.00,,,0.00,weatherlink.com 1.10,2013-03-01 11:32:00,
2013-03-01 06:47:00,41.3,30.0,29.77,NNW,332,4.0,7.0,65,0.00,,,0.00,weatherlink.com 1.10,2013-03-01 11:47:00,
2013-03-01 07:02:00,41.3,31.0,29.78,SW,230,0.0,5.0,66,0.00,,,0.00,weatherlink.com 1.10,2013-03-01 12:02:00,
2013-03-01 07:17:00,41.3,30.0,29.79,WNW,286,0.0,5.0,65,0.00,,,0.00,weatherlink.com 1.10,2013-03-01 12:17:00,
2013-03-01 07:32:00,41.4,30.0,29.80,NNE,31,3.0,6.0,65,0.00,,,0.00,weatherlink.com 1.10,2013-03-01 12:32:00,
2013-03-01 07:47:00,41.6,31.0,29.80,WSW,250,1.0,7.0,65,0.00,,,0.00,weatherlink.com 1.10,2013-03-01 12:47:00,
2013-03-01 08:02:00,42.0,30.0,29.81,North,9,0.0,9.0,63,0.00,,,0.00,weatherlink.com 1.10,2013-03-01 13:02:00,
2013-03-01 08:17:00,42.1,30.0,29.81,WSW,250,1.0,7.0,63,0.00,,,0.00,weatherlink.com 1.10,2013-03-01 13:17:00,
2013-03-01 08:33:00,42.1,30.0,29.82,WSW,253,4.0,7.0,62,0.00,,,0.00,weatherlink.com 1.10,2013-03-01 13:33:00,
2013-03-01 08:48:00,42.2,30.0,29.82,West,276,3.0,12.0,62,0.00,,,0.00,weatherlink.com 1.10,2013-03-01 13:48:00,
2013-03-01 09:03:00,42.5,31.0,29.82,NNW,335,3.0,6.0,63,0.00,,,0.00,weatherlink.com 1.10,2013-03-01 14:03:00,
2013-03-01 09:18:00,42.8,30.0,29.82,WSW,248,3.0,10.0,62,0.00,,,0.00,weatherlink.com 1.10,2013-03-01 14:18:00,
2013-03-01 09:33:00,43.0,30.0,29.81,West,276,3.0,11.0,60,0.00,,,0.00,weatherlink.com 1.10,2013-03-01 14:33:00,
2013-03-01 09:48:00,43.4,31.0,29.81,West,269,1.0,7.0,61,0.00,,,0.00,weatherlink.com 1.10,2013-03-01 14:48:00,
2013-03-01 10:03:00,43.2,30.0,29.81,WSW,238,3.0,11.0,59,0.00,,,0.00,weatherlink.com 1.10,2013-03-01 15:03:00,
2013-03-01 10:18:00,43.5,30.0,29.82,NNW,345,2.0,9.0,60,0.00,,,0.00,weatherlink.com 1.10,2013-03-01 15:18:00,
2013-03-01 10:33:00,43.4,29.0,29.82,West,261,3.0,9.0,58,0.00,,,0.00,weatherlink.com 1.10,2013-03-01 15:33:00,
2013-03-01 10:48:00,43.8,30.0,29.82,North,350,2.0,6.0,58,0.00,,,0.00,weatherlink.com 1.10,2013-03-01 15:48:00,
2013-03-01 11:03:00,44.2,29.0,29.82,West,263,4.0,10.0,56,0.00,,,0.00,weatherlink.com 1.10,2013-03-01 16:03:00,
2013-03-01 11:18:00,44.4,29.0,29.82,NNW,340,0.0,6.0,56,0.00,,,0.00,weatherlink.com 1.10,2013-03-01 16:18:00,
2013-03-01 11:33:00,44.5,30.0,29.83,NNW,337,0.0,10.0,57,0.00,,,0.00,weatherlink.com 1.10,2013-03-01 16:33:00,
2013-03-01 11:48:00,44.9,29.0,29.82,NW,306,3.0,8.0,55,0.00,,,0.00,weatherlink.com 1.10,2013-03-01 16:48:00,
2013-03-01 12:03:00,45.0,28.0,29.82,West,281,0.0,7.0,52,0.00,,,0.00,weatherlink.com 1.10,2013-03-01 17:03:00,
2013-03-01 12:18:00,45.2,27.0,29.82,WSW,254,3.0,9.0,50,0.00,,,0.00,weatherlink.com 1.10,2013-03-01 17:18:00,
2013-03-01 12:33:00,44.9,28.0,29.82,NNE,26,3.0,9.0,51,0.00,,,0.00,weatherlink.com 1.10,2013-03-01 17:33:00,
2013-03-01 12:48:00,44.7,27.0,29.82,NW,315,2.0,10.0,51,0.00,,,0.00,weatherlink.com 1.10,2013-03-01 17:48:00,
2013-03-01 13:03:00,45.1,27.0,29.81,NNW,344,3.0,9.0,50,0.00,,,0.00,weatherlink.com 1.10,2013-03-01 18:03:00,
2013-03-01 13:18:00,44.9,27.0,29.81,West,261,5.0,9.0,50,0.00,,,0.00,weatherlink.com 1.10,2013-03-01 18:18:00,
2013-03-01 13:33:00,44.6,28.0,29.81,WSW,256,2.0,7.0,52,0.00,,,0.00,weatherlink.com 1.10,2013-03-01 18:33:00,
2013-03-01 13:48:00,44.9,28.0,29.80,NW,305,3.0,6.0,51,0.00,,,0.00,weatherlink.com 1.10,2013-03-01 18:48:00,
2013-03-01 14:03:00,45.0,27.0,29.80,NNW,328,1.0,4.0,49,0.00,,,0.00,weatherlink.com 1.10,2013-03-01 19:03:00,
2013-03-01 14:18:00,44.9,27.0,29.80,West,281,2.0,8.0,50,0.00,,,0.00,weatherlink.com 1.10,2013-03-01 19:18:00,
2013-03-01 14:33:00,44.7,26.0,29.80,WSW,237,5.0,6.0,49,0.00,,,0.00,weatherlink.com 1.10,2013-03-01 19:33:00,
2013-03-01 14:48:00,44.6,27.0,29.80,WSW,252,3.0,6.0,50,0.00,,,0.00,weatherlink.com 1.10,2013-03-01 19:48:00,
2013-03-01 15:03:00,44.0,27.0,29.81,West,261,3.0,6.0,51,0.00,,,0.00,weatherlink.com 1.10,2013-03-01 20:03:00,
2013-03-01 15:18:00,43.8,27.0,29.80,North,352,2.0,9.0,52,0.00,,,0.00,weatherlink.com 1.10,2013-03-01 20:18:00,
2013-03-01 15:33:00,44.0,27.0,29.80,North,352,1.0,5.0,52,0.00,,,0.00,weatherlink.com 1.10,2013-03-01 20:33:00,
2013-03-01 15:48:00,44.0,28.0,29.80,NNW,346,1.0,7.0,53,0.00,,,0.00,weatherlink.com 1.10,2013-03-01 20:48:00,
2013-03-01 16:03:00,44.1,26.0,29.80,West,276,3.0,6.0,50,0.00,,,0.00,weatherlink.com 1.10,2013-03-01 21:03:00,
2013-03-01 16:18:00,44.1,26.0,29.81,WSW,256,1.0,6.0,49,0.00,,,0.00,weatherlink.com 1.10,2013-03-01 21:18:00,
2013-03-01 16:33:00,44.0,27.0,29.82,NW,325,2.0,6.0,51,0.00,,,0.00,weatherlink.com 1.10,2013-03-01 21:33:00,
2013-03-01 16:48:00,43.6,26.0,29.82,WSW,246,2.0,10.0,51,0.00,,,0.00,weatherlink.com 1.10,2013-03-01 21:48:00,
2013-03-01 17:03:00,43.1,26.0,29.82,North,352,3.0,10.0,51,0.00,,,0.00,weatherlink.com 1.10,2013-03-01 22:03:00,
2013-03-01 17:18:00,42.9,26.0,29.82,SW,230,5.0,10.0,52,0.00,,,0.00,weatherlink.com 1.10,2013-03-01 22:18:00,
2013-03-01 17:33:00,42.7,26.0,29.83,West,281,3.0,10.0,53,0.00,,,0.00,weatherlink.com 1.10,2013-03-01 22:33:00,
2013-03-01 17:48:00,42.4,27.0,29.83,SW,234,4.0,9.0,55,0.00,,,0.00,weatherlink.com 1.10,2013-03-01 22:48:00,
2013-03-01 18:03:00,42.2,27.0,29.84,NNE,16,3.0,6.0,55,0.00,,,0.00,weatherlink.com 1.10,2013-03-01 23:03:00,
2013-03-01 18:18:00,42.0,27.0,29.84,WSW,255,0.0,5.0,55,0.00,,,0.00,weatherlink.com 1.10,2013-03-01 23:18:00,
2013-03-01 18:33:00,42.0,26.0,29.84,NNW,329,1.0,7.0,54,0.00,,,0.00,weatherlink.com 1.10,2013-03-01 23:33:00,
2013-03-01 18:48:00,41.9,26.0,29.84,NW,321,1.0,7.0,54,0.00,,,0.00,weatherlink.com 1.10,2013-03-01 23:48:00,
2013-03-01 19:03:00,41.8,27.0,29.84,NNW,332,2.0,8.0,55,0.00,,,0.00,weatherlink.com 1.10,2013-03-02 00:03:00,
2013-03-01 19:18:00,41.6,26.0,29.85,West,276,7.0,10.0,55,0.00,,,0.00,weatherlink.com 1.10,2013-03-02 00:18:00,
2013-03-01 19:33:00,41.5,27.0,29.85,WSW,244,2.0,8.0,56,0.00,,,0.00,weatherlink.com 1.10,2013-03-02 00:33:00,
2013-03-01 19:48:00,41.3,27.0,29.86,NNW,348,3.0,4.0,57,0.00,,,0.00,weatherlink.com 1.10,2013-03-02 00:48:00,
2013-03-01 20:03:00,41.1,27.0,29.86,NW,323,1.0,8.0,58,0.00,,,0.00,weatherlink.com 1.10,2013-03-02 01:03:00,
2013-03-01 20:18:00,40.9,27.0,29.87,South,191,3.0,8.0,59,0.00,,,0.00,weatherlink.com 1.10,2013-03-02 01:18:00,
2013-03-01 20:33:00,40.7,27.0,29.87,West,270,2.0,7.0,59,0.00,,,0.00,weatherlink.com 1.10,2013-03-02 01:33:00,
2013-03-01 20:48:00,40.6,28.0,29.87,NNW,333,1.0,4.0,60,0.00,,,0.00,weatherlink.com 1.10,2013-03-02 01:48:00,
2013-03-01 21:03:00,40.4,28.0,29.88,West,276,3.0,9.0,62,0.00,,,0.00,weatherlink.com 1.10,2013-03-02 02:03:00,
2013-03-01 21:19:00,39.8,28.0,29.88,NW,321,1.0,9.0,63,0.00,,,0.00,weatherlink.com 1.10,2013-03-02 02:19:00,
2013-03-01 21:34:00,39.6,28.0,29.89,WSW,248,0.0,8.0,64,0.00,,,0.00,weatherlink.com 1.10,2013-03-02 02:34:00,
2013-03-01 21:49:00,39.2,28.0,29.88,WNW,296,2.0,10.0,64,0.00,,,0.00,weatherlink.com 1.10,2013-03-02 02:49:00,
2013-03-01 22:04:00,39.1,28.0,29.89,NNW,331,0.0,7.0,64,0.00,,,0.00,weatherlink.com 1.10,2013-03-02 03:04:00,
2013-03-01 22:19:00,38.9,28.0,29.89,WSW,254,2.0,8.0,64,0.00,,,0.00,weatherlink.com 1.10,2013-03-02 03:19:00,
2013-03-01 22:34:00,38.9,28.0,29.89,NW,318,3.0,8.0,64,0.00,,,0.00,weatherlink.com 1.10,2013-03-02 03:34:00,
2013-03-01 22:49:00,38.8,27.0,29.88,North,7,6.0,9.0,64,0.00,,,0.00,weatherlink.com 1.10,2013-03-02 03:49:00,
2013-03-01 23:04:00,38.7,27.0,29.88,NNW,330,0.0,7.0,63,0.00,,,0.00,weatherlink.com 1.10,2013-03-02 04:04:00,
2013-03-01 23:19:00,38.6,26.0,29.88,NNW,333,2.0,7.0,62,0.00,,,0.00,weatherlink.com 1.10,2013-03-02 04:19:00,
2013-03-01 23:34:00,38.5,26.0,29.89,WSW,243,0.0,6.0,62,0.00,,,0.00,weatherlink.com 1.10,2013-03-02 04:34:00,
2013-03-01 23:49:00,38.3,26.0,29.89,WNW,290,2.0,7.0,62,0.00,,,0.00,weatherlink.com 1.10,2013-03-02 04:49:00,